Theta_e
318 311 309 313 317 317 318 308 301 298 298 293 291 293 294 298 297 297 295 295 297 299 298 299 298 301 303 297 301 297 295 299 298 295 293 298 316 332 333 330 333 334 335 338 342 345 347 348 348 347 347 347 346 345 344 342 341 340 339 338 339 339 339 340 342 343 346 345 345 344 344 344 344 344 343 343 343 343 343 343 341 340 339 337 336 334 333 339 342 343 344 344 344 342 341 341 339
312 308 310 316 313 315 311 303 294 294 292 290 294 292 294 296 297 296 297 296 296 302 298 301 303 304 303 302 298 302 304 305 298 301 307 321 332 334 333 333 334 333 336 339 342 345 345 346 348 348 347 347 347 345 344 342 341 340 339 338 338 338 338 339 343 342 341 345 345 344 343 344 343 344 343 343 343 343 342 341 341 339 338 337 336 334 333 334 340 341 342 342 342 341 340 339 338
311 307 313 313 310 309 307 304 297 289 292 289 292 294 297 298 296 297 299 298 296 297 300 303 304 304 304 302 303 301 297 311 309 312 318 327 327 330 333 333 335 335 337 340 343 344 344 346 347 347 347 347 346 345 343 342 341 339 339 338 338 338 336 338 342 342 342 342 344 344 344 344 343 343 343 343 343 341 341 340 340 338 337 335 336 335 333 334 336 341 340 340 340 340 339 338 337
307 307 312 309 306 306 303 299 293 292 291 291 290 296 296 299 295 298 298 297 295 298 300 304 304 305 302 299 301 303 302 306 312 318 321 325 328 332 332 334 336 337 339 341 343 345 344 345 346 347 347 347 346 345 343 342 341 338 338 338 338 338 336 337 339 337 337 340 342 342 342 343 343 343 341 341 341 340 339 338 337 336 335 335 333 333 333 333 334 336 336 340 339 338 337 337 336
305 312 312 305 304 303 301 297 294 293 294 290 292 295 297 296 299 299 298 298 296 299 299 301 301 303 303 303 305 301 299 307 310 317 320 326 327 333 333 334 336 337 339 342 344 344 344 345 345 346 347 346 345 345 344 343 341 338 338 338 338 336 335 336 337 336 337 339 340 341 341 341 340 339 339 340 340 339 338 336 336 335 336 335 333 332 333 333 333 335 335 335 336 337 337 336 335
307 311 313 310 305 306 297 293 291 293 298 296 295 298 298 299 299 300 299 299 299 298 299 300 302 302 304 306 305 305 305 305 310 316 320 326 328 333 334 334 336 337 341 343 344 344 343 344 344 345 346 346 346 345 344 343 341 339 338 338 337 336 335 337 336 336 336 338 337 340 342 340 340 340 340 340 340 338 337 336 335 336 338 337 335 333 332 332 332 332 333 333 333 336 336 335 334
308 309 305 302 302 302 293 289 290 291 296 299 297 300 302 300 300 301 299 301 302 302 298 303 301 302 301 303 309 310 310 318 318 319 324 325 330 334 334 335 335 337 341 342 344 343 343 343 344 345 346 346 346 344 343 343 341 340 338 338 336 336 336 337 336 336 336 335 333 337 339 338 338 339 341 341 340 338 337 336 334 333 338 338 336 333 332 331 332 333 333 332 333 335 336 335 334
318 308 304 297 292 294 292 291 292 291 293 301 299 299 301 300 299 299 299 299 299 301 300 299 301 301 297 308 303 308 314 316 319 319 324 329 332 333 334 335 334 337 341 342 343 343 344 342 343 344 346 346 345 344 343 342 341 340 339 337 337 336 337 337 336 336 336 334 333 335 336 337 336 339 339 338 338 336 335 334 332 332 332 339 338 335 333 331 331 333 333 333 332 332 335 334 333
308 306 302 296 294 291 289 291 292 294 295 295 299 300 308 305 300 299 298 299 299 300 300 301 300 299 296 306 304 307 311 317 319 323 327 330 331 333 335 334 334 336 341 342 342 342 343 342 342 343 344 345 345 344 343 342 340 339 338 337 337 336 337 337 336 336 336 334 333 334 335 335 335 335 334 335 337 335 335 333 333 333 332 338 339 337 334 332 330 330 331 331 331 332 332 331 332
304 302 293 294 291 290 288 289 289 293 295 297 300 302 301 299 299 299 299 299 299 302 301 300 300 299 300 302 304 308 313 319 323 323 327 330 332 334 334 334 334 337 340 341 342 342 343 344 341 342 343 344 344 345 343 343 342 341 338 337 337 336 337 337 335 334 335 335 333 334 335 335 334 333 332 334 334 334 333 334 333 331 332 338 338 339 337 334 332 330 330 331 330 330 330 330 331
297 298 297 295 290 287 288 289 290 293 293 293 294 298 300 299 300 298 299 299 300 301 301 301 303 300 304 303 305 307 316 319 323 322 327 331 333 333 333 334 335 338 339 340 341 342 343 343 343 341 342 342 343 343 343 343 342 341 338 337 337 337 337 337 336 335 336 337 333 334 335 336 333 332 333 337 337 337 334 334 333 332 332 337 338 339 338 336 334 333 330 330 329 330 330 330 330
293 295 297 291 288 289 288 288 291 293 294 293 295 297 298 299 300 300 299 300 299 299 301 303 303 304 303 304 304 312 316 319 321 324 328 331 332 333 333 334 335 337 339 340 341 341 342 343 343 343 340 339 340 341 341 342 342 341 340 338 337 338 337 337 336 335 335 337 335 335 335 334 333 332 335 337 335 338 334 335 333 331 331 335 338 338 337 336 335 334 332 330 329 329 330 331 330
296 293 289 289 286 287 287 288 290 292 292 294 296 298 298 300 300 302 301 303 300 300 300 304 307 307 301 304 304 311 316 320 321 325 329 331 332 333 333 333 335 337 339 340 340 340 341 342 342 343 341 338 338 338 339 340 341 341 341 340 339 339 338 338 337 335 335 336 338 338 336 334 333 332 335 337 335 338 336 336 336 332 330 332 334 339 338 337 336 334 333 334 332 331 331 331 331
299 294 292 289 287 286 287 287 287 289 290 295 296 299 300 300 300 303 301 299 299 300 302 305 307 306 304 304 303 309 316 319 321 326 330 330 330 331 331 333 335 336 337 339 339 339 340 341 341 342 341 339 338 338 337 337 339 340 339 339 339 339 338 337 337 336 337 337 338 338 338 336 334 333 335 336 333 334 334 333 333 335 332 331 330 332 334 335 333 332 333 332 332 332 332 333 333
300 297 293 288 286 286 287 289 289 289 292 296 296 298 300 302 300 300 303 300 302 303 305 308 307 304 300 305 302 307 316 320 323 326 327 327 327 328 328 332 334 335 337 338 339 339 340 340 340 341 340 339 337 336 336 337 336 337 337 338 338 338 338 336 336 335 335 336 335 337 336 336 334 334 334 334 333 333 334 332 331 333 334 333 331 330 331 332 331 331 332 332 332 332 332 332 333
301 295 291 291 287 287 289 288 289 289 292 295 297 298 299 299 300 301 301 304 301 304 305 304 306 304 304 307 304 307 320 322 324 325 324 323 323 323 325 329 332 334 335 336 337 338 340 340 339 339 339 338 337 336 335 335 335 334 335 335 336 336 336 334 333 332 331 331 331 333 334 333 332 332 334 331 331 331 333 327 329 332 334 333 333 332 330 330 330 330 331 331 332 332 332 332 333
300 300 292 288 289 287 289 289 289 289 291 292 295 299 298 298 300 301 303 302 303 303 303 304 306 312 308 306 310 315 322 324 324 322 321 320 321 321 323 326 329 330 332 334 336 337 338 338 339 338 338 337 336 336 336 334 335 333 333 333 333 333 333 332 330 329 328 327 327 328 331 328 327 327 329 325 329 324 326 325 327 330 333 335 335 333 333 332 332 331 331 331 331 332 333 333 333
300 294 290 287 288 289 291 293 291 292 293 294 294 295 297 296 297 302 304 303 302 303 302 303 311 312 313 312 316 322 323 323 322 321 320 319 320 320 321 324 325 326 328 331 334 336 337 337 338 337 336 335 334 337 337 336 335 333 332 332 332 331 331 331 329 328 332 326 325 326 326 327 325 323 323 329 324 322 323 324 326 328 330 332 335 335 335 335 333 332 332 332 332 332 332 323 321
295 289 288 287 290 293 295 294 295 294 293 293 293 292 294 296 300 300 301 299 298 300 301 307 308 309 311 316 320 321 322 321 321 321 319 318 319 319 320 322 324 326 326 328 331 334 335 336 337 336 336 334 333 335 337 337 337 336 334 332 331 330 332 332 328 328 326 326 324 324 324 323 323 322 322 324 321 322 323 323 325 327 328 330 332 334 334 334 335 333 333 333 333 332 325 320 321
293 290 288 290 292 294 295 295 296 295 296 296 295 295 295 297 299 301 300 298 298 300 299 302 306 307 308 314 318 320 321 320 321 320 320 319 320 320 320 320 322 324 326 328 329 332 334 334 335 336 335 334 332 333 335 337 337 337 337 336 333 331 330 330 327 326 326 325 325 324 323 323 322 322 328 329 330 323 321 322 323 324 326 327 328 331 332 331 332 333 333 332 331 326 320 322 320
292 290 287 287 291 293 295 296 298 298 295 296 295 294 295 296 296 300 298 297 295 298 301 303 305 308 308 315 318 319 320 319 320 320 320 319 320 321 321 322 322 323 325 327 328 329 332 333 333 334 334 333 331 330 333 336 336 337 337 337 336 333 330 328 327 325 325 325 325 324 323 322 322 322 321 322 322 320 318 319 320 320 320 320 324 319 319 319 324 319 318 321 317 316 318 321 320
292 291 292 290 292 293 295 297 297 296 296 294 293 294 297 296 297 297 298 295 296 298 302 304 306 309 309 314 317 319 319 319 319 319 320 320 320 320 322 322 319 320 322 323 324 327 330 332 332 333 333 332 331 329 332 334 335 336 336 337 337 334 332 330 327 326 325 324 324 324 323 322 321 321 319 320 321 318 318 317 318 317 315 318 318 319 316 316 317 316 316 316 316 313 317 320 319
287 288 289 290 293 293 295 295 294 294 294 293 294 295 296 296 296 295 296 297 297 300 302 302 302 305 313 318 316 317 318 319 319 320 320 320 320 321 322 323 322 321 322 322 323 324 327 330 330 331 331 331 329 328 329 331 334 335 335 336 335 335 334 331 329 326 325 324 323 323 323 322 321 321 320 319 320 318 318 317 317 315 315 316 317 317 316 315 316 316 315 315 313 312 313 313 316
291 287 288 293 291 290 292 293 292 293 291 293 295 296 296 295 296 294 295 296 300 302 300 301 303 305 316 316 318 318 319 319 320 321 322 322 322 322 323 323 324 320 321 323 323 324 324 327 328 328 329 330 329 328 327 329 332 333 334 332 333 333 334 332 331 328 326 325 324 324 323 323 322 321 320 320 320 319 320 318 317 316 316 317 316 317 317 315 315 314 314 312 314 313 314 313 313
291 290 288 291 294 293 294 296 296 294 293 294 293 293 294 295 295 295 297 298 301 301 300 307 309 311 313 316 318 318 319 320 320 321 322 322 323 322 321 323 323 323 322 323 324 324 324 325 326 326 326 327 329 329 328 329 330 332 332 331 331 329 333 334 333 331 329 326 325 324 323 323 322 322 321 320 319 322 322 320 318 318 317 317 316 318 319 318 315 314 315 315 314 315 313 314 315
290 290 293 294 294 296 297 296 296 295 294 294 293 293 294 295 296 295 299 299 301 302 300 304 311 311 312 315 318 318 319 319 320 320 321 322 321 321 322 323 324 323 324 325 325 325 326 325 325 326 326 326 327 327 328 328 329 329 331 331 329 327 330 334 334 333 332 330 327 326 324 324 324 323 322 321 320 322 323 323 321 319 318 318 317 319 320 321 319 315 314 315 315 316 317 318 318
294 294 293 293 294 294 295 294 294 294 293 294 294 293 294 294 294 293 297 298 299 299 298 301 309 310 313 314 316 318 319 319 320 322 321 319 319 321 321 322 323 324 325 324 325 326 326 326 325 326 326 325 326 326 326 326 327 328 329 331 331 329 329 331 334 333 332 332 331 329 328 326 324 324 323 322 321 322 323 323 323 322 320 318 318 319 320 322 322 319 317 316 316 317 318 319 318
296 296 294 293 293 293 294 294 293 293 294 292 293 293 294 294 293 295 296 300 297 299 297 298 308 309 312 314 315 317 318 320 320 318 320 319 320 321 321 322 322 324 324 324 326 327 327 326 326 326 326 326 325 325 325 325 325 326 327 330 331 332 331 329 331 334 332 332 332 332 330 328 326 326 325 324 322 323 324 324 324 324 323 321 319 318 319 322 321 321 319 317 315 315 315 314 315
296 294 289 290 291 292 292 292 292 292 292 293 293 293 292 293 292 294 299 300 300 298 298 298 301 309 311 313 315 316 318 319 318 319 321 322 323 323 322 324 324 323 325 325 326 326 327 327 327 327 327 326 325 325 325 325 324 324 325 327 329 330 331 331 330 331 333 333 332 331 332 331 328 328 327 326 324 325 325 324 324 324 325 324 322 319 318 318 320 320 319 318 316 314 315 314 312
295 291 288 288 287 288 291 290 292 291 292 293 293 284 287 289 294 297 298 299 298 297 298 298 298 302 309 311 313 316 318 317 317 319 321 322 322 323 322 324 324 324 324 324 324 325 327 328 328 328 328 327 326 326 326 325 325 324 324 325 326 328 329 329 329 330 330 332 333 332 332 332 331 330 329 328 327 326 325 324 324 324 325 325 323 321 320 320 320 320 319 318 316 316 317 316 314
287 289 289 283 282 281 287 288 288 289 291 294 293 285 287 289 291 292 295 297 298 298 298 299 299 298 302 309 312 314 316 318 319 320 321 321 322 323 323 324 324 324 323 323 324 325 326 327 328 329 328 328 326 326 326 326 326 325 325 324 324 326 327 328 328 328 329 329 330 331 332 332 332 332 331 329 328 327 326 325 324 324 323 322 322 322 322 321 321 320 320 318 318 316 316 315 314
285 284 280 279 282 281 288 292 288 287 288 293 293 286 288 288 291 294 294 295 296 297 298 298 298 299 299 302 309 313 315 317 318 320 320 321 321 322 323 323 324 324 324 324 324 324 325 326 326 327 328 328 328 327 327 327 326 326 326 325 324 324 325 326 327 327 327 328 328 328 330 331 331 332 331 330 329 328 327 326 326 326 323 321 322 322 322 321 321 320 320 320 317 317 315 315 312
280 283 281 279 279 280 284 288 288 288 287 289 292 285 285 286 292 292 293 293 293 293 294 295 296 297 299 299 302 309 313 314 316 318 319 320 322 322 323 323 324 324 325 325 324 324 324 325 325 326 326 327 328 328 328 327 327 326 326 326 326 325 324 324 325 326 326 326 326 326 327 328 329 330 330 330 329 328 328 327 327 327 325 323 322 322 321 321 321 320 320 319 319 319 316 314 313
280 280 279 280 280 280 280 287 288 288 287 284 286 287 288 286 288 292 293 293 292 292 293 294 295 295 296 297 298 300 305 309 313 316 318 320 321 322 323 324 324 324 324 325 325 324 324 325 325 325 326 327 328 328 328 328 328 327 326 326 325 326 324 324 324 325 325 325 325 325 325 325 325 327 328 329 328 328 328 328 327 327 325 323 322 321 321 321 321 321 320 319 318 318 317 315 313
277 277 277 277 279 281 281 281 284 289 288 287 288 287 288 289 289 291 293 294 292 292 293 293 294 294 294 295 296 297 298 302 307 313 317 319 320 321 322 323 323 324 324 324 325 324 324 324 324 324 324 325 326 327 328 328 329 328 328 327 326 326 326 325 325 324 324 324 324 325 324 324 323 325 325 326 327 327 327 327 327 327 325 323 323 322 322 321 320 320 320 319 317 318 318 316 316
281 283 283 284 281 283 280 283 287 287 286 286 286 285 287 289 290 290 292 294 292 293 293 293 293 293 293 294 295 297 298 299 301 306 312 316 319 320 321 322 323 324 324 324 323 324 323 323 324 324 323 325 325 325 325 326 328 327 326 326 325 325 326 325 325 325 324 324 325 325 324 324 324 323 324 325 325 326 326 326 326 326 325 324 323 322 322 321 320 319 319 319 317 315 315 316 315
288 287 285 283 283 283 285 285 288 289 287 285 286 286 286 287 288 290 292 293 293 292 292 293 294 293 294 294 295 296 297 299 302 303 303 307 313 317 320 321 322 322 323 323 322 322 323 323 322 322 324 324 323 323 323 324 324 325 326 325 324 326 325 325 324 324 325 325 324 324 324 324 324 324 323 324 324 323 326 326 326 326 325 324 323 323 323 322 322 321 319 318 317 316 315 314 315
286 284 284 283 283 282 286 286 288 289 285 284 286 285 285 286 288 289 290 290 291 292 292 293 294 295 294 293 294 295 297 297 299 300 302 302 304 309 316 319 318 319 320 322 321 322 323 323 322 323 324 323 324 324 323 323 324 325 325 325 325 326 325 323 323 324 324 324 324 324 324 324 324 324 323 324 324 325 325 325 326 326 325 324 323 324 323 320 320 319 319 317 316 317 316 313 314
286 285 285 284 284 286 287 286 287 287 286 283 283 283 286 288 289 291 290 291 292 293 293 294 294 295 296 295 293 294 295 297 298 299 300 301 303 305 309 315 319 320 321 321 322 322 321 322 323 323 323 323 323 324 323 322 323 324 324 324 325 324 325 325 324 323 323 323 324 323 323 323 324 324 323 322 323 324 324 324 325 325 325 324 322 322 322 321 320 319 318 318 315 313 315 313 314
283 283 282 280 284 283 280 284 284 288 286 284 286 284 286 289 289 289 290 290 291 293 294 294 294 294 294 296 296 295 295 296 297 299 300 301 301 303 305 310 316 319 320 320 321 321 321 321 322 323 323 323 324 324 322 324 324 324 324 323 319 323 321 321 322 320 321 322 322 323 323 323 323 323 323 323 323 324 324 324 324 324 325 324 323 322 321 321 320 319 318 317 317 314 313 313 315
285 284 284 282 282 283 284 284 286 287 288 287 285 284 285 286 285 285 286 288 289 291 291 292 293 294 295 296 296 296 296 297 298 299 300 300 300 301 302 306 312 316 319 320 320 321 322 321 322 323 323 323 324 323 323 323 323 320 321 317 315 316 314 317 318 320 322 322 323 322 323 324 324 323 323 323 322 323 323 324 324 324 324 323 323 323 322 321 320 319 318 317 316 318 315 312 312
283 286 285 284 284 282 284 285 283 282 282 286 284 277 278 282 281 282 284 284 286 287 287 290 291 292 293 294 295 296 296 297 298 299 300 301 300 301 301 302 307 313 317 320 321 322 322 322 323 323 324 324 324 324 323 323 322 322 320 320 319 319 319 318 319 320 321 321 322 324 324 324 324 323 323 323 322 322 322 323 323 323 323 322 322 322 322 320 319 318 318 318 316 317 318 312 312
281 282 286 285 285 285 285 284 283 279 277 282 284 278 275 283 281 281 282 281 284 285 284 287 288 290 290 292 294 295 296 296 296 297 298 298 299 299 300 300 302 308 315 319 320 321 322 322 323 323 324 324 324 324 324 322 322 322 321 321 321 320 320 320 322 323 323 323 323 323 324 324 324 323 323 323 323 322 322 322 322 323 323 322 321 321 321 321 321 320 319 317 318 316 316 316 316
280 286 284 285 283 283 284 285 284 283 286 286 286 284 278 279 283 284 284 285 286 287 289 290 290 289 289 290 292 293 294 295 296 296 297 297 298 298 300 301 301 304 309 315 319 320 321 322 322 323 324 323 325 325 324 323 322 322 321 321 321 321 321 321 322 323 323 322 321 322 322 322 323 324 324 323 323 323 321 322 322 322 322 322 321 320 321 321 321 320 318 318 318 317 317 317 318
282 287 286 283 283 283 284 284 282 282 283 279 285 284 278 278 282 281 283 282 282 284 285 286 288 289 289 289 290 291 292 293 293 295 295 296 296 297 298 299 301 302 304 308 314 319 321 322 322 322 323 323 324 325 324 323 323 323 322 322 321 322 323 322 322 321 321 320 321 321 321 322 322 323 324 323 323 323 321 322 322 322 322 322 320 321 321 321 321 320 318 317 317 317 318 318 319
285 287 287 285 283 282 284 281 282 282 280 275 281 283 277 278 282 282 281 281 279 283 286 287 288 287 288 288 289 289 289 290 292 292 292 293 294 295 296 299 299 300 302 304 307 313 317 320 321 321 322 324 324 324 324 324 323 322 322 322 321 321 321 322 322 320 319 319 320 320 321 321 322 321 322 323 323 323 323 322 322 322 322 322 320 321 321 320 320 320 320 319 318 318 319 318 318
287 286 284 284 284 282 281 280 279 277 274 277 283 283 281 274 280 280 282 283 284 284 285 285 285 286 287 287 286 288 289 290 291 292 293 294 294 294 294 295 297 299 300 301 303 306 311 316 319 320 322 323 324 325 324 324 324 323 323 323 322 322 322 321 321 320 319 317 319 320 321 322 322 322 322 322 323 323 323 322 322 322 322 321 320 320 321 321 321 321 321 319 318 318 318 318 317
286 282 281 281 279 281 277 274 278 272 270 278 282 283 283 274 280 280 282 282 282 284 285 285 286 287 287 287 289 290 290 291 292 293 294 295 295 296 296 296 294 295 296 298 299 301 305 310 314 317 320 321 323 324 324 324 324 324 323 323 323 323 322 322 321 320 321 319 320 321 321 321 321 321 321 321 321 322 322 322 321 321 321 322 321 322 322 322 321 321 321 320 320 319 320 319 320
285 283 281 270 268 271 266 272 269 271 270 275 279 280 279 279 283 286 285 286 288 284 283 286 287 288 288 289 289 290 291 291 292 293 293 294 295 295 296 296 296 294 295 297 298 299 301 305 309 312 315 319 321 323 323 324 324 324 324 323 323 323 323 323 322 322 322 321 320 320 320 320 320 319 320 321 321 321 322 322 322 321 321 321 322 322 322 322 321 321 321 321 321 320 320 321 320
277 278 278 273 268 268 266 267 267 268 273 277 277 279 277 282 285 288 288 288 287 288 288 287 287 287 288 288 289 289 291 291 292 292 292 293 294 295 296 297 297 296 295 296 297 298 299 301 304 307 311 315 318 320 322 323 323 324 324 324 324 323 323 323 323 322 322 322 321 320 320 321 320 321 321 321 322 322 321 322 322 322 322 322 321 322 322 322 321 322 322 321 321 322 322 321 321
276 282 280 277 275 271 267 268 264 266 269 274 275 274 272 277 278 283 285 287 285 286 286 286 287 287 287 288 288 290 290 291 292 292 292 293 294 295 296 297 298 298 297 296 297 298 298 299 300 303 306 310 314 317 320 321 322 323 323 324 324 324 323 323 323 323 323 322 321 320 321 321 321 321 321 322 322 322 321 321 321 322 322 322 321 321 321 322 321 322 322 322 322 323 322 322 321
279 283 284 278 276 279 270 274 273 272 272 272 274 276 281 279 286 286 284 283 284 284 285 285 286 287 287 287 288 289 290 291 292 292 293 293 294 294 295 296 297 299 298 297 296 298 298 299 299 301 303 306 310 313 316 319 321 322 322 322 323 323 321 322 321 320 322 322 321 321 320 321 321 322 322 321 321 321 321 321 320 321 321 321 321 321 321 321 322 322 322 322 322 323 323 322 322
278 276 272 277 283 279 275 277 278 277 274 270 278 277 278 282 284 283 283 284 285 285 285 284 284 285 286 286 287 288 289 289 290 291 292 293 293 293 294 295 296 298 299 299 299 299 298 299 299 299 301 302 305 308 311 313 315 314 316 319 319 319 320 319 320 320 320 320 320 319 320 320 321 321 321 320 320 319 320 320 320 320 320 321 321 320 321 321 322 322 322 322 322 323 322 322 322
276 269 275 281 282 281 276 269 271 270 269 271 276 273 276 277 273 280 284 282 284 284 283 283 284 284 285 286 286 287 287 288 289 290 291 292 292 292 293 294 295 297 299 300 301 301 300 300 299 298 298 299 301 303 304 305 306 308 309 310 312 315 317 318 318 319 318 316 316 317 317 318 318 320 320 320 319 319 319 316 319 319 320 320 320 320 320 321 322 322 322 322 323 323 322 322 322
277 277 280 275 270 271 277 273 267 268 266 269 272 275 276 278 278 281 281 281 282 283 283 283 284 284 284 285 286 287 287 287 288 289 290 291 291 291 292 293 294 296 298 300 301 301 300 299 299 298 298 298 299 301 301 300 302 304 305 306 308 310 311 313 315 315 314 315 316 316 317 318 318 316 316 317 317 317 317 317 318 318 319 319 319 320 320 321 322 322 322 322 323 323 322 321 322
273 277 278 279 277 274 271 274 273 270 266 267 267 271 269 280 280 282 282 283 283 283 284 283 284 284 284 284 285 286 286 287 287 288 289 290 290 291 291 292 293 295 297 299 300 300 301 301 300 299 299 299 298 299 300 301 300 302 303 303 305 307 308 310 311 312 313 313 314 315 315 315 316 315 316 317 317 317 316 316 316 317 317 318 318 319 320 321 321 322 322 322 322 322 321 320 320
273 273 273 272 273 277 276 272 270 270 267 266 266 265 270 276 282 282 283 283 284 284 283 284 284 285 285 285 286 286 286 286 287 287 288 289 289 290 291 292 293 294 296 297 299 299 299 298 299 299 300 299 299 299 298 300 299 300 300 302 304 305 307 308 308 309 310 311 311 311 313 315 314 315 315 315 316 316 316 316 316 315 317 317 317 317 319 321 321 321 322 322 321 321 320 320 319
273 274 273 275 272 272 268 266 276 271 267 264 265 264 272 278 282 283 283 283 283 284 283 284 284 285 285 286 287 287 286 286 286 287 288 289 289 290 290 292 293 293 294 295 297 298 298 299 298 297 298 299 299 299 298 299 297 299 300 301 303 304 306 308 309 309 309 311 311 312 312 311 312 313 314 315 316 316 316 316 316 316 316 317 317 317 318 320 320 320 321 321 321 320 320 319 319
Wind_Speed
10 8 8 5 1 0 1 4 1 2 1 4 2 1 4 1 2 4 3 2 1 2 3 2 6 7 6 5 11 7 2 10 7 10 6 3 2 6 5 2 7 10 12 9 10 11 11 14 17 19 19 18 19 19 17 16 15 14 13 13 12 11 9 10 12 13 14 13 12 11 12 13 12 13 13 12 13 13 13 13 11 10 9 9 8 7 3 8 9 10 11 12 11 12 13 13 12
7 7 6 2 1 1 1 1 2 2 3 2 6 1 4 1 1 5 5 6 3 1 0 4 3 3 6 5 3 4 1 3 7 1 3 3 1 6 3 5 9 13 10 9 10 10 10 12 16 18 19 19 19 19 17 17 16 15 14 14 12 12 10 10 14 13 10 13 12 11 12 12 12 12 13 13 13 13 11 10 11 10 9 8 8 8 6 6 10 9 11 12 11 11 12 12 11
8 6 5 3 2 3 1 2 3 0 1 5 7 7 2 1 4 6 9 7 3 1 1 4 3 1 1 2 0 4 6 1 1 1 2 2 7 6 5 6 8 10 10 8 9 9 9 11 16 17 19 19 19 18 18 17 16 15 14 14 13 12 11 10 14 14 14 12 13 12 13 12 12 13 14 12 12 10 9 10 10 9 9 6 6 7 7 6 9 10 9 11 10 10 10 10 10
7 3 1 1 1 2 2 2 2 5 3 5 5 5 4 3 5 7 6 8 3 1 1 1 3 1 2 1 1 1 2 2 4 5 2 5 5 5 6 8 9 7 8 7 8 9 8 11 17 17 17 19 20 19 18 17 16 15 14 13 15 14 12 12 14 12 8 11 12 12 12 13 12 11 11 10 10 9 8 8 8 8 7 7 5 5 7 6 7 8 7 11 10 9 10 9 9
7 1 2 3 2 0 2 1 2 4 6 4 4 4 4 5 6 4 3 4 3 4 0 1 1 0 1 1 1 1 3 2 2 4 2 2 1 8 7 8 8 8 9 8 8 8 8 13 15 16 17 19 20 19 18 17 17 16 14 14 13 12 12 12 12 9 11 9 11 12 12 11 10 8 9 11 10 10 10 8 8 8 7 7 7 6 6 6 6 7 6 7 8 9 10 9 8
3 2 1 1 1 1 4 0 2 4 6 5 1 6 4 6 4 3 4 2 2 3 2 0 1 1 0 2 3 1 3 1 1 2 3 6 6 10 9 8 8 8 9 8 8 8 7 13 14 15 16 18 19 18 18 18 17 16 15 14 15 14 14 14 13 11 10 11 13 12 11 11 10 11 9 11 11 10 9 8 7 7 7 8 8 8 7 7 6 7 6 5 7 9 10 9 8
3 3 2 3 1 3 4 4 7 6 8 6 4 6 7 3 5 1 1 1 0 1 4 2 2 1 0 1 1 3 3 2 2 3 6 5 8 11 10 9 8 9 9 8 7 8 8 13 14 15 16 18 19 18 18 18 17 16 16 15 15 14 15 14 12 13 11 11 12 12 10 9 9 10 11 13 12 10 9 7 6 5 8 8 9 9 9 7 9 9 7 7 7 10 11 9 7
0 0 1 1 1 2 2 3 6 5 5 8 3 5 6 4 1 2 4 3 3 5 3 2 1 1 5 2 2 1 1 3 2 1 4 9 10 11 10 10 10 10 10 9 7 7 10 13 14 14 15 17 18 18 17 17 16 16 16 15 15 14 15 15 13 12 12 11 11 10 10 9 9 11 13 9 9 9 7 7 6 6 7 9 8 10 10 9 7 10 9 9 9 9 12 10 6
2 2 0 3 2 1 1 6 6 2 4 2 8 7 7 3 3 2 4 3 3 1 1 3 4 4 3 0 3 2 3 1 1 3 7 10 12 12 9 11 12 11 10 9 8 7 8 12 13 14 15 14 16 16 16 16 15 15 15 15 15 14 14 14 14 14 12 12 12 13 10 7 8 8 5 10 11 10 8 7 7 8 9 10 9 9 10 11 9 6 9 10 10 10 11 5 4
1 1 2 2 3 5 3 6 1 6 5 6 6 8 5 1 2 4 4 3 5 0 3 2 4 4 1 3 3 2 2 1 4 4 5 10 11 11 10 10 10 12 10 9 8 8 7 12 13 14 14 13 15 15 15 15 16 15 15 15 15 15 15 15 14 14 14 13 14 12 12 9 10 7 5 7 10 10 9 8 9 9 9 9 10 9 9 11 10 10 8 8 9 8 9 4 3
0 4 2 1 2 5 8 7 6 4 4 3 5 10 9 1 3 2 4 3 1 2 0 4 1 5 2 3 4 1 2 2 7 8 7 10 11 12 10 9 9 12 11 10 9 8 8 10 13 13 14 12 14 14 14 14 16 16 15 15 15 15 15 15 15 15 15 15 13 11 12 12 11 10 9 7 8 7 8 9 8 9 10 9 9 10 11 12 11 10 9 8 7 7 7 6 5
1 0 1 4 5 7 6 6 5 8 4 3 5 4 2 5 3 1 4 4 4 4 4 7 4 7 1 1 4 1 3 4 5 7 8 8 10 9 10 8 9 10 11 10 9 8 8 9 9 12 13 11 13 13 13 14 14 15 15 15 14 14 13 14 13 14 14 16 13 13 11 11 10 10 11 7 9 5 8 8 8 9 10 10 9 10 9 9 10 10 10 9 8 7 6 6 6
1 1 2 1 5 3 2 4 6 5 4 7 7 1 2 5 5 8 7 10 1 3 5 12 2 6 3 3 3 3 2 7 4 7 9 9 9 8 7 7 9 9 10 10 10 10 9 8 9 9 10 11 11 12 12 13 13 14 14 14 13 12 12 11 10 12 12 12 13 12 12 12 12 12 4 5 8 4 9 7 9 10 9 8 9 11 11 10 10 9 9 9 9 8 8 7 6
2 6 6 4 1 1 4 4 1 5 7 4 2 1 3 3 6 5 3 4 6 6 4 6 2 4 2 2 5 3 6 4 5 7 7 7 7 7 9 8 9 8 10 10 10 11 9 9 8 8 9 8 6 10 11 13 12 13 13 13 13 13 12 11 10 11 11 12 9 13 11 11 11 9 6 4 6 3 7 7 3 8 10 10 8 8 9 10 9 8 7 8 8 8 8 7 6
2 1 2 1 2 1 3 5 6 6 11 1 2 3 2 5 2 4 9 6 13 2 1 1 4 3 6 6 8 6 3 8 9 6 8 7 6 6 7 8 9 8 9 9 9 11 10 9 9 8 9 8 6 6 6 9 12 12 12 12 12 12 13 11 11 11 10 6 10 9 12 12 10 9 8 6 4 6 4 8 4 2 10 10 10 10 9 8 8 8 7 8 7 8 8 7 5
3 4 2 2 5 5 5 4 1 4 8 0 0 1 2 4 1 3 5 6 2 1 1 4 1 4 2 7 2 4 5 11 9 8 8 8 6 4 6 6 7 7 7 8 9 9 9 10 8 8 8 9 7 5 6 7 10 11 11 12 11 11 12 11 11 11 10 6 8 9 10 9 9 5 8 6 7 6 5 4 3 3 4 12 11 10 9 9 9 8 8 8 8 8 7 6 4
1 2 1 1 9 4 4 4 6 8 3 2 3 1 2 2 1 2 0 1 3 2 2 1 5 1 3 3 3 1 7 11 11 10 9 7 7 6 5 5 6 6 6 8 8 9 9 10 10 8 8 9 8 7 6 7 8 10 8 10 11 10 11 10 10 11 11 7 7 9 7 5 5 5 5 5 8 4 6 5 3 2 4 5 9 10 10 10 9 10 10 9 9 8 6 5 3
2 3 3 6 5 6 4 6 7 2 1 0 3 1 3 3 4 1 1 1 2 0 1 3 3 3 1 3 1 6 8 14 12 14 10 9 7 7 7 7 8 9 8 8 8 9 9 9 10 10 8 9 8 7 6 6 6 7 6 5 6 7 9 9 8 6 7 5 8 6 4 5 5 4 4 5 5 4 5 6 4 3 4 5 3 6 6 6 9 11 10 10 10 8 7 3 1
5 2 3 13 6 5 7 4 7 1 5 2 2 3 2 3 1 2 3 2 2 3 3 1 4 5 1 3 6 9 10 11 13 12 15 14 12 13 11 8 8 8 10 9 9 10 10 9 9 10 10 9 8 8 6 7 7 5 5 6 5 6 5 6 6 6 4 5 5 5 5 4 4 4 4 5 4 6 5 6 6 5 5 5 4 4 4 4 5 7 9 8 8 7 4 1 1
4 5 7 8 4 3 5 3 4 7 2 5 5 2 1 3 1 2 2 6 1 4 4 2 4 8 6 2 5 9 9 11 12 13 14 14 12 12 11 11 10 11 11 11 11 8 9 9 11 10 11 10 9 7 6 7 7 6 6 6 5 5 5 5 5 5 5 5 6 5 5 4 4 4 6 8 6 4 4 6 7 7 7 5 5 4 5 5 5 4 5 5 3 1 1 1 0
2 3 7 3 3 4 4 5 7 7 4 3 3 2 6 3 4 0 1 5 5 5 5 7 9 11 9 5 7 9 11 11 11 10 11 11 10 9 12 14 15 13 10 8 8 10 11 11 9 10 10 9 9 7 7 7 8 7 6 6 7 6 5 5 5 5 5 5 5 5 5 5 5 5 4 4 5 4 4 4 4 4 4 4 4 4 3 3 3 3 2 3 1 1 1 1 1
1 6 1 1 1 1 6 6 6 4 2 2 1 3 6 1 1 4 5 8 8 4 6 6 8 8 2 6 8 10 12 13 12 12 14 15 17 15 9 6 3 4 7 9 11 10 11 10 10 9 9 10 10 9 9 7 7 8 8 5 7 7 6 6 5 5 5 5 5 5 5 5 5 5 4 4 5 4 5 4 5 4 3 5 3 4 3 3 3 3 3 4 4 1 2 2 2
5 3 3 1 2 4 3 3 4 5 4 3 2 2 3 3 5 2 3 8 6 7 1 3 4 6 4 6 4 5 9 14 15 16 15 14 13 12 12 10 10 10 9 9 8 8 9 9 10 9 10 9 10 8 7 7 8 7 7 8 5 7 9 7 6 6 6 5 5 5 6 5 5 5 5 4 5 4 5 5 5 4 4 4 4 4 4 3 3 4 3 4 4 3 3 3 3
3 5 5 8 4 4 6 8 6 7 6 6 3 3 3 5 13 0 4 5 9 9 3 4 6 5 5 7 11 13 14 16 18 19 18 20 20 21 17 13 8 3 5 8 8 8 9 12 10 10 10 10 9 8 8 8 8 8 8 8 9 5 7 10 8 7 6 6 6 6 6 6 7 6 5 5 5 4 5 4 5 5 5 5 4 4 4 4 3 3 3 4 4 4 4 4 3
3 4 3 5 5 4 6 8 8 5 6 8 6 5 7 5 6 3 7 6 8 7 3 4 2 2 4 7 12 14 12 10 11 12 8 7 7 3 3 6 6 7 9 10 9 9 10 10 11 11 10 11 9 9 9 8 8 8 8 9 9 9 6 7 10 7 7 6 6 7 6 7 6 6 7 6 5 6 5 5 5 5 5 5 4 4 5 4 4 4 4 4 4 4 4 4 4
3 2 6 6 7 8 8 10 9 7 4 1 4 8 7 9 5 9 15 10 10 11 4 5 1 2 5 8 12 14 14 16 14 10 14 10 5 7 8 8 8 11 13 10 10 11 9 10 12 13 12 11 10 9 9 9 9 9 9 9 9 8 9 6 8 9 8 8 7 7 7 7 8 7 7 6 7 7 6 6 6 6 6 5 5 6 5 5 5 4 4 4 5 5 5 5 4
5 8 5 9 11 9 5 5 7 5 4 3 6 10 8 4 5 9 0 7 4 2 5 1 2 5 6 5 5 8 13 16 16 15 6 5 7 10 9 7 11 13 9 11 11 10 9 10 12 12 12 11 9 10 9 10 9 10 9 8 8 10 9 8 6 10 9 8 9 9 8 8 7 7 7 7 6 7 7 7 7 6 6 6 6 6 5 6 5 6 5 6 6 6 6 5 5
8 10 12 8 7 6 8 7 10 3 6 2 5 8 7 6 3 13 4 7 3 3 5 1 1 4 4 5 6 6 8 10 8 5 11 11 11 12 13 13 13 11 12 15 12 8 9 12 12 12 12 11 11 11 10 10 10 10 9 8 9 8 9 9 9 6 10 10 7 9 9 9 8 8 8 7 8 8 7 7 7 7 7 6 6 6 6 6 6 6 6 5 4 4 4 4 3
8 6 10 10 10 10 3 6 4 4 6 4 3 7 13 6 9 3 8 9 8 7 7 8 5 6 6 5 6 6 10 9 4 7 12 13 10 8 13 14 13 12 10 9 7 9 12 12 12 12 11 11 13 13 11 10 9 9 9 10 8 8 8 9 10 10 6 8 12 10 9 10 9 9 8 9 8 8 8 8 8 8 7 7 6 6 6 5 5 5 6 4 5 4 4 5 4
5 2 4 8 5 9 6 2 4 6 4 3 2 10 13 8 12 8 9 6 6 5 8 7 7 6 6 6 6 7 8 5 7 11 12 10 9 10 13 12 10 10 8 6 7 11 10 8 9 9 12 13 14 12 11 10 10 9 8 8 8 9 9 9 9 9 9 7 6 11 12 10 9 9 9 9 8 8 8 8 8 8 7 7 6 6 7 6 6 6 7 5 6 6 6 6 5
4 7 0 4 5 5 4 0 3 4 4 6 4 10 15 1 2 5 5 5 6 8 9 8 7 8 7 7 7 8 10 8 11 12 11 9 8 8 11 8 8 9 5 7 13 14 10 10 9 9 12 13 12 13 13 12 10 9 9 8 8 9 8 9 8 9 9 10 9 6 8 11 11 10 10 9 9 9 9 9 9 8 7 6 6 6 7 6 6 7 6 6 6 6 6 6 6
2 6 5 3 3 5 11 9 4 4 2 4 7 11 16 1 5 6 3 2 4 8 8 8 7 7 8 6 8 8 10 10 11 11 10 9 9 9 10 11 9 8 11 12 10 8 12 11 11 11 12 14 14 14 13 11 11 10 9 9 8 8 8 9 9 9 9 8 9 10 10 8 9 10 9 9 8 8 8 9 9 7 7 6 7 6 7 7 7 7 7 7 7 7 6 7 5
2 5 7 9 3 5 7 3 2 5 3 3 9 9 4 2 4 6 6 5 3 4 5 6 6 6 7 6 6 7 8 6 7 10 11 10 10 10 11 11 10 12 12 10 10 10 11 12 12 13 15 16 15 14 12 10 10 10 10 9 9 8 9 9 8 8 8 9 9 10 11 12 11 10 10 9 8 8 8 8 8 8 7 7 7 7 7 7 7 7 7 7 8 8 7 8 6
4 1 5 1 4 4 4 8 4 6 4 4 4 6 11 3 10 13 9 3 4 7 8 8 7 6 6 5 5 5 6 6 7 9 12 12 11 13 13 12 12 11 10 11 10 11 12 11 11 13 12 11 11 12 12 10 9 8 7 7 8 9 10 8 8 8 9 10 10 10 11 11 11 12 11 10 9 9 9 9 8 8 7 7 7 7 8 7 7 7 8 7 8 8 7 7 7
1 1 4 5 2 1 7 3 5 17 6 5 9 11 15 8 6 8 10 14 9 8 9 10 8 6 5 5 6 6 6 7 10 9 11 11 11 11 10 11 10 9 10 11 11 10 8 9 10 11 11 12 12 11 9 9 8 8 7 7 8 9 8 8 8 9 10 9 10 11 10 10 10 11 11 11 11 10 10 10 9 9 7 8 8 8 8 8 8 8 9 7 6 8 8 7 7
8 5 5 7 8 7 5 4 6 3 11 14 10 10 14 11 10 4 10 9 10 11 10 11 9 7 6 6 6 7 7 10 8 9 10 9 9 10 11 10 10 9 10 9 10 10 10 9 9 9 10 11 9 8 8 9 8 9 9 8 9 10 10 10 10 11 9 10 11 10 10 9 9 10 11 11 11 11 10 10 10 9 9 8 9 10 10 8 9 9 9 8 7 6 6 6 4
9 6 9 11 10 10 4 4 7 5 8 8 8 11 15 14 11 8 10 10 9 11 9 11 10 9 8 7 7 7 7 10 8 6 6 7 8 8 9 9 10 10 10 10 10 11 12 13 11 13 12 11 9 10 10 11 11 10 9 11 12 12 12 12 11 11 11 11 10 9 9 9 9 10 11 11 11 11 10 9 9 9 9 9 10 11 10 10 9 9 8 8 10 8 7 5 5
5 6 9 10 7 11 8 8 5 7 4 7 9 12 16 15 11 6 7 7 10 9 10 11 13 12 8 8 9 8 9 4 5 7 9 7 7 8 8 8 8 10 11 12 13 14 14 13 13 14 11 10 12 13 12 11 12 13 13 14 13 12 11 11 13 11 11 8 8 9 9 9 10 10 10 11 11 11 10 9 9 10 9 10 10 9 9 9 9 9 8 7 6 9 7 7 6
5 7 8 10 8 6 7 6 2 3 2 8 3 8 15 15 13 11 9 11 12 9 8 12 12 14 13 9 7 7 5 9 7 8 7 8 8 8 7 7 9 12 12 13 14 13 12 11 13 13 11 11 12 13 11 12 12 12 12 11 11 8 7 8 7 5 6 8 8 9 9 10 10 10 11 11 11 11 11 10 11 10 10 9 9 10 9 9 9 10 10 9 5 5 6 4 8
3 4 7 10 8 4 5 2 4 7 4 8 11 14 17 14 8 10 11 10 10 10 11 12 11 12 13 14 10 7 7 7 9 10 9 8 7 7 6 8 10 10 11 10 11 13 11 11 12 13 12 12 12 12 13 14 13 11 9 5 4 7 6 4 6 5 6 8 10 10 10 11 12 12 12 12 10 11 12 12 10 9 10 9 10 9 9 10 9 9 9 9 7 7 6 6 7
5 7 8 8 9 7 8 7 6 8 9 6 8 10 15 10 8 5 6 8 8 8 9 9 9 9 11 10 10 7 9 7 8 9 10 9 8 8 9 10 7 8 10 11 11 12 10 14 15 16 14 14 13 13 15 13 8 6 7 4 3 3 2 5 5 7 10 10 9 9 14 14 13 14 12 12 12 12 11 10 10 10 9 9 9 10 10 11 9 8 9 10 11 11 8 5 6
5 5 8 10 7 7 9 8 5 5 8 4 5 6 10 5 2 6 6 3 4 2 3 8 8 6 6 8 10 10 7 7 9 12 12 10 8 7 6 6 7 9 10 12 11 13 13 13 14 14 12 11 12 13 14 12 11 11 10 10 10 9 10 9 11 14 13 13 15 16 13 11 13 12 11 11 11 10 11 11 10 10 10 9 9 10 9 7 8 10 11 11 11 10 10 5 6
5 1 4 3 2 3 3 5 2 3 5 2 6 5 12 7 4 4 5 4 7 5 4 7 7 7 5 6 8 9 8 8 7 8 9 9 9 7 8 7 8 9 11 10 9 11 12 12 12 13 12 12 12 12 13 11 11 10 13 15 15 15 14 12 12 11 10 10 8 8 9 9 10 11 11 10 10 10 10 10 10 10 10 9 8 8 9 10 10 11 9 9 10 9 8 9 10
3 1 7 6 8 7 7 4 4 5 2 5 4 6 9 15 6 4 5 7 8 8 11 11 9 7 7 7 7 8 9 6 7 8 9 8 8 8 11 9 7 10 10 7 8 8 10 13 12 12 11 12 12 12 12 13 13 13 14 14 13 13 14 15 13 12 9 5 7 9 7 7 8 9 10 9 10 10 10 10 10 10 10 10 9 9 11 10 9 8 9 10 9 8 11 11 10
5 4 3 5 5 7 5 4 5 4 6 7 3 4 6 8 2 3 3 5 5 7 7 7 9 9 8 8 8 8 9 8 5 7 9 10 10 7 5 9 8 7 7 8 9 10 10 11 12 11 11 11 11 12 13 14 15 15 15 14 13 12 12 11 9 7 7 7 8 8 8 8 8 9 10 10 10 11 10 11 10 10 10 10 9 10 10 10 12 10 9 9 10 10 9 10 9
3 2 6 5 5 4 5 5 4 4 4 6 6 5 7 15 9 3 1 1 3 7 8 8 8 7 8 9 8 8 9 9 9 7 7 10 10 10 6 7 8 8 8 7 8 7 7 8 10 12 13 12 12 13 14 15 16 14 13 13 15 13 10 10 8 8 7 7 9 8 8 7 8 8 9 10 10 11 11 10 10 12 12 11 10 11 11 10 10 10 11 12 11 11 9 9 11
4 7 7 6 6 5 2 3 4 2 6 6 9 10 8 10 6 4 1 4 3 4 5 6 6 6 7 5 5 5 7 8 9 10 10 10 10 10 9 8 9 7 7 7 8 7 7 7 9 11 14 12 12 14 14 15 14 14 14 15 16 15 14 12 10 10 7 6 9 10 10 10 9 9 8 8 10 10 10 10 11 11 11 10 10 10 11 11 11 11 10 10 10 12 10 10 10
1 3 3 6 7 2 2 2 1 2 4 7 4 7 12 9 3 1 3 2 2 4 6 7 8 9 9 8 8 8 7 7 8 9 13 13 15 16 14 13 10 9 7 8 7 6 7 8 7 10 11 11 11 11 12 13 13 14 14 15 15 15 14 12 13 14 12 12 11 10 9 7 7 7 7 7 9 9 9 9 10 10 10 10 11 11 11 11 10 9 8 9 10 11 10 10 10
2 4 4 3 5 5 7 2 3 4 6 1 2 3 4 11 13 13 7 9 12 4 3 8 8 9 9 8 8 7 6 7 9 10 11 13 13 15 16 17 15 11 10 8 9 8 8 8 8 9 12 10 11 11 12 14 13 13 14 14 14 13 14 14 13 13 11 10 10 10 8 9 7 7 8 9 10 11 10 10 10 11 10 11 12 11 11 11 9 9 9 10 10 11 11 12 10
9 6 7 3 4 2 3 3 2 3 5 6 2 2 5 6 10 13 12 7 2 5 5 4 5 5 7 7 7 7 8 7 8 8 9 11 13 14 15 15 13 12 11 10 9 8 8 8 9 10 14 11 10 10 12 12 14 14 13 13 13 12 13 13 12 12 11 10 9 10 10 10 10 11 10 11 11 12 10 11 11 12 12 11 10 11 10 10 10 9 10 11 11 11 11 12 12
6 5 3 5 4 3 5 2 0 3 4 4 1 2 5 4 5 5 4 1 5 3 3 3 2 4 5 5 5 8 10 10 8 8 9 10 12 13 14 15 14 12 11 10 9 9 8 9 9 11 13 12 11 12 12 12 12 12 11 12 12 11 11 10 10 10 9 9 8 10 10 9 9 9 10 10 9 10 10 10 11 11 10 10 10 10 10 9 9 10 10 11 11 10 11 11 11
3 3 2 2 4 6 3 6 5 4 6 4 0 5 3 5 7 6 6 4 6 4 5 6 9 10 10 11 11 10 10 11 11 10 11 12 11 12 13 14 15 13 12 9 9 9 9 10 10 12 14 12 10 10 11 12 12 10 11 12 12 12 10 8 8 7 8 9 8 9 9 9 9 9 8 8 9 10 10 10 10 11 10 10 10 10 10 9 10 10 10 10 11 8 10 12 11
7 4 3 5 8 3 5 6 10 5 1 5 2 6 6 6 9 4 8 9 12 13 13 12 11 12 12 14 13 12 11 11 12 12 11 13 14 14 13 14 15 15 14 12 11 9 9 11 9 11 11 7 7 8 9 8 8 7 8 8 7 7 8 9 10 9 9 7 6 7 7 9 8 8 8 8 9 8 9 9 10 10 10 10 9 10 10 10 10 10 10 10 11 10 10 11 10
3 2 5 11 1 3 2 4 3 1 3 3 4 3 4 5 7 3 12 12 11 11 12 13 12 14 16 13 11 11 11 10 10 11 11 12 14 15 15 14 14 15 14 13 12 10 9 7 6 8 7 7 7 5 6 6 6 7 6 6 6 7 8 8 8 8 7 7 7 6 6 7 9 9 9 8 8 8 8 9 9 9 9 9 10 9 10 10 10 10 10 11 11 10 10 9 9
3 2 5 5 5 4 7 2 5 8 6 6 3 5 5 4 7 9 11 12 15 14 12 14 17 15 14 14 14 13 12 11 12 14 14 15 15 16 15 15 16 15 14 11 10 9 9 7 4 4 8 6 6 5 4 3 5 6 6 8 8 8 8 7 7 7 6 8 9 8 9 11 8 7 7 7 7 8 8 8 9 9 8 9 9 9 10 10 10 10 10 10 10 10 10 10 9
2 3 5 1 2 0 4 1 4 2 5 8 7 8 8 1 3 2 11 13 11 9 13 15 17 16 12 10 11 10 11 11 12 13 13 13 14 14 15 14 15 16 15 14 12 8 8 8 6 3 3 2 3 4 6 7 7 6 6 5 5 7 7 8 8 9 9 10 10 9 10 8 9 7 8 8 8 9 8 9 8 9 9 8 9 9 10 10 10 10 10 9 9 10 10 10 9
6 5 4 4 2 4 0 2 3 2 4 1 6 10 6 6 2 6 13 9 5 5 11 14 16 18 16 13 12 11 9 9 10 11 13 14 14 14 15 14 12 13 11 11 10 11 7 6 6 5 3 2 3 4 4 6 5 6 5 7 7 6 7 6 6 6 7 8 7 8 8 9 6 8 7 8 9 9 9 9 9 9 10 9 10 10 9 10 10 10 10 10 9 10 10 9 9
2 1 3 3 4 7 5 5 2 1 2 3 3 9 13 15 3 9 7 5 6 8 12 16 17 17 17 15 14 13 14 10 9 10 12 14 13 13 14 14 13 12 13 15 13 10 11 8 6 7 6 4 4 5 4 4 4 4 6 6 7 5 6 6 7 7 8 8 7 8 8 5 7 7 8 9 9 9 9 9 9 10 10 10 10 10 10 10 10 10 10 9 9 10 10 10 9
Wind_Direction
327 329 316 320 49 109 88 7 159 306 54 252 310 185 260 265 249 335 250 327 270 233 195 84 112 136 163 204 194 189 206 138 204 131 213 238 259 195 175 133 136 146 149 156 156 163 166 170 168 165 162 159 158 157 157 157 157 158 160 165 170 167 165 175 160 149 142 136 135 136 136 137 137 136 137 133 133 132 135 129 122 123 114 120 124 122 141 135 119 117 112 111 114 113 111 109 105
319 325 312 328 240 70 195 124 97 332 36 346 245 125 250 285 44 227 240 203 203 290 290 119 96 95 66 56 126 111 260 226 176 181 264 244 270 157 146 162 152 153 152 156 156 158 162 167 168 164 161 160 159 157 156 157 159 158 162 162 163 166 175 186 159 157 151 143 141 143 138 138 142 140 138 140 144 145 139 135 125 120 117 119 130 141 155 164 138 130 121 116 119 113 109 108 111
320 333 334 13 27 64 92 34 270 39 152 260 270 210 314 276 209 258 234 214 225 270 229 89 116 59 63 357 194 165 246 33 284 287 233 302 137 200 171 160 158 150 148 152 156 156 159 166 165 167 162 161 159 157 158 159 159 161 165 165 162 166 180 188 165 182 161 161 152 153 149 145 142 148 147 151 148 145 141 137 136 129 112 113 137 146 157 168 152 131 131 123 122 118 110 111 114
312 246 174 69 197 25 80 27 107 139 203 220 309 260 204 201 242 231 251 232 213 177 266 146 153 213 125 268 228 26 271 294 199 157 193 206 209 141 151 159 148 144 145 151 157 154 158 168 163 168 165 162 160 160 160 161 161 162 167 168 166 169 170 185 179 178 181 169 163 166 158 152 159 162 151 139 130 119 112 125 118 108 108 120 128 136 150 161 157 141 144 129 130 130 123 119 110
312 305 121 127 109 286 117 203 158 122 233 186 218 266 234 224 252 265 268 260 242 164 33 181 93 241 175 155 182 158 249 241 287 195 194 194 172 145 151 153 146 147 149 156 154 151 160 167 164 166 165 164 160 161 162 163 163 163 165 168 164 165 169 181 175 176 181 173 169 169 167 155 151 151 160 153 145 136 132 125 115 112 129 145 147 149 151 154 145 132 147 153 148 141 133 119 112
269 51 344 117 236 164 56 16 272 210 228 152 241 254 217 223 222 287 276 315 228 153 161 72 175 214 155 212 180 170 191 108 158 186 164 202 168 144 152 148 145 147 152 154 153 154 162 167 164 164 165 165 163 163 164 165 165 164 165 169 166 172 172 179 172 172 190 190 180 180 174 175 171 165 163 149 141 137 137 139 134 145 143 160 160 152 147 155 147 160 169 161 176 155 144 128 118
329 21 359 31 9 45 190 190 225 221 254 166 231 263 259 244 230 170 298 79 252 302 163 212 118 88 18 289 346 241 185 136 122 229 173 158 153 144 151 150 145 150 153 156 152 155 167 166 165 166 168 167 166 165 166 168 166 166 169 169 171 172 170 172 177 176 182 191 191 179 190 167 165 158 152 150 146 147 161 175 172 199 148 171 168 159 152 152 162 156 180 169 202 169 158 131 120
263 61 294 110 247 42 239 223 236 160 273 184 232 244 270 260 154 166 209 139 215 192 199 247 163 124 247 57 200 279 307 197 203 262 149 136 150 146 153 153 151 155 156 155 156 158 169 167 167 166 171 171 167 167 168 169 168 167 170 170 173 175 175 174 171 178 172 190 201 198 208 161 164 158 162 168 170 169 169 174 197 185 187 170 170 164 155 157 158 156 176 173 186 193 169 119 113
348 87 339 71 235 32 341 233 241 221 282 302 270 236 264 258 200 160 188 227 333 242 161 181 182 122 259 107 223 283 292 256 238 164 150 145 155 152 154 160 157 156 156 157 160 158 169 171 170 168 172 174 169 169 170 169 168 169 172 174 176 178 175 178 168 173 184 184 196 198 184 157 178 187 227 181 183 173 175 171 170 169 187 170 167 163 161 155 157 171 174 177 187 188 197 120 113
42 56 281 171 122 235 242 274 228 227 216 224 231 256 237 188 186 191 187 252 221 124 238 179 154 197 119 207 297 289 230 69 125 111 164 153 151 151 155 160 156 154 154 159 163 163 167 172 172 171 175 176 171 171 172 171 171 171 174 175 177 181 181 177 178 181 183 183 196 195 186 183 193 178 205 191 194 182 179 171 168 178 172 162 163 167 164 157 157 166 182 187 191 188 199 204 172
283 12 143 136 190 234 229 259 253 288 252 289 284 246 247 169 128 204 195 238 245 195 67 159 41 233 129 262 210 264 320 167 140 169 177 158 153 156 156 158 156 159 158 159 163 163 166 173 175 174 176 178 173 174 174 174 174 175 176 176 181 187 188 180 181 181 186 180 187 195 192 179 198 188 196 205 192 179 176 173 176 177 175 171 174 169 169 163 162 165 170 188 193 199 206 208 218
321 40 23 217 205 201 226 222 241 262 286 326 272 253 208 173 129 195 224 238 223 241 190 165 217 140 197 324 287 270 345 179 193 164 161 157 157 156 152 152 154 165 160 157 161 167 167 170 176 179 179 180 175 177 174 175 176 177 178 179 183 192 188 189 181 181 186 179 185 189 189 181 197 190 198 203 184 169 175 174 178 177 185 174 161 162 169 166 159 165 169 172 185 198 204 211 218
128 126 79 102 230 203 188 232 246 273 312 245 234 282 140 129 180 210 211 211 122 180 267 215 70 140 218 195 247 311 224 218 187 159 156 160 155 148 143 148 156 162 163 162 165 170 173 173 173 179 182 181 178 177 177 177 178 178 180 181 183 186 184 187 185 184 192 191 182 181 182 183 193 201 166 170 165 158 167 192 178 174 192 188 175 161 165 175 171 177 180 176 181 186 194 199 209
143 178 128 245 44 177 162 221 222 249 261 256 210 155 179 151 233 210 111 188 220 189 242 181 106 170 240 9 301 283 229 191 155 154 146 146 142 142 147 150 159 162 165 168 171 171 179 175 173 175 177 182 178 179 179 179 183 180 182 184 183 183 181 185 192 200 201 192 187 172 179 179 184 206 203 175 171 133 181 198 169 183 186 190 198 200 187 186 185 187 184 196 198 198 194 195 204
229 163 102 147 278 68 234 216 189 200 256 142 246 145 196 258 157 139 177 193 236 190 321 96 164 113 241 160 272 237 213 158 142 141 134 126 130 136 140 152 157 163 168 175 174 175 182 174 175 173 177 179 178 180 176 184 185 185 184 186 187 183 180 183 187 201 217 196 184 176 172 173 176 199 194 180 162 132 169 189 170 266 187 185 192 210 203 208 205 203 204 208 212 214 211 208 212
158 90 90 185 246 190 253 202 151 194 256 115 324 169 169 285 232 129 246 183 253 318 100 196 284 198 219 173 218 281 155 134 134 128 124 122 119 119 132 148 158 168 175 177 183 183 181 177 176 176 177 179 178 178 177 178 189 187 187 189 190 185 182 184 183 190 211 190 177 158 171 169 173 166 180 177 183 155 155 159 168 214 249 191 191 197 205 212 214 211 216 217 218 228 228 232 231
74 83 206 155 254 176 237 189 159 234 246 285 305 25 222 268 321 251 230 184 222 240 226 221 203 41 190 213 296 145 125 122 125 126 124 130 137 140 139 153 161 169 180 186 188 185 184 181 180 177 180 177 176 176 179 180 185 187 188 192 191 188 185 185 182 183 199 186 181 158 158 161 163 165 176 178 195 177 173 156 189 215 258 220 183 201 203 203 208 214 215 220 225 232 239 244 246
90 190 163 238 201 203 196 201 189 214 215 340 23 69 21 310 333 301 11 3 248 33 222 290 304 273 241 267 345 120 136 135 142 142 152 150 159 160 171 179 172 183 178 186 193 187 188 187 185 181 179 179 175 177 177 180 182 180 181 189 193 189 190 187 185 181 190 183 187 166 147 160 160 167 168 183 186 195 194 185 191 219 241 232 204 217 209 211 211 215 218 215 219 225 229 220 311
183 194 165 237 171 236 160 189 214 225 255 247 257 300 207 250 26 314 13 298 358 300 281 310 281 293 329 51 118 134 144 146 154 160 161 166 175 179 182 178 184 174 190 187 190 191 193 188 185 185 186 178 177 179 177 177 182 180 181 184 188 187 189 188 186 182 179 180 188 173 153 160 163 168 169 180 182 195 198 204 201 208 223 226 224 239 244 234 243 231 231 230 223 217 213 145 218
239 152 229 234 213 245 233 184 226 201 245 293 331 303 123 255 318 311 274 277 16 223 255 305 272 255 240 143 152 149 157 160 168 168 174 178 183 181 177 184 189 198 192 191 188 189 191 194 192 188 185 180 179 182 175 182 182 186 188 188 182 185 185 188 187 182 178 180 184 178 164 167 171 172 181 184 178 189 204 213 214 210 212 222 223 225 238 241 244 254 247 261 295 270 112 116 64
282 168 227 236 224 232 257 225 245 249 201 258 215 297 314 262 219 106 231 332 293 257 236 213 230 237 231 181 170 163 164 170 178 183 179 185 191 196 194 188 190 191 187 176 188 193 193 194 192 192 186 184 183 182 183 183 184 189 194 186 189 183 184 185 185 184 181 181 184 180 174 168 174 178 181 185 185 187 196 207 219 225 220 218 220 219 223 237 251 258 278 284 304 304 150 174 160
344 220 271 211 25 252 267 254 273 273 236 221 277 300 252 325 124 201 207 223 251 231 250 224 238 245 199 193 192 178 173 176 183 184 191 189 190 196 197 205 191 159 164 188 195 192 194 192 193 193 189 191 190 186 190 183 177 191 200 193 183 189 188 186 184 184 184 185 181 182 171 172 175 178 185 192 195 187 199 207 212 209 221 223 209 219 229 223 237 231 234 243 256 245 198 214 199
285 303 283 299 271 291 306 319 337 16 344 338 331 229 332 330 275 222 205 219 244 237 248 321 266 272 199 157 174 213 189 183 187 192 192 194 199 201 201 195 187 186 186 196 185 194 192 190 190 189 194 192 194 186 188 186 194 190 190 201 195 188 187 189 191 187 187 181 181 179 177 182 181 185 191 195 201 188 204 206 209 201 210 219 212 206 227 226 226 225 221 231 238 247 239 214 208
226 258 325 312 12 287 292 293 337 317 329 280 237 356 287 289 284 128 201 238 238 261 296 279 270 264 175 166 180 197 199 194 195 197 192 194 193 197 194 190 190 160 183 193 190 189 188 192 188 188 195 192 192 186 186 192 195 194 193 193 214 210 187 193 194 189 183 186 184 185 184 183 184 190 196 194 203 191 209 205 203 205 208 216 206 195 215 223 225 226 225 235 234 237 240 234 219
238 266 329 293 324 293 300 299 303 286 272 261 281 275 250 214 246 335 249 228 261 264 234 302 311 201 200 200 188 192 204 224 224 214 212 222 218 199 171 186 182 185 201 199 191 190 194 188 185 192 192 195 192 187 193 194 195 197 192 200 205 210 220 199 189 185 190 189 189 185 183 188 192 192 195 198 187 204 203 205 204 211 206 214 196 214 205 218 224 219 222 228 226 234 234 240 227
50 283 313 304 303 300 297 303 295 295 292 268 288 256 260 239 292 267 261 248 244 265 292 274 202 159 213 221 204 190 196 205 212 211 211 205 184 184 200 194 187 198 207 194 191 200 187 185 190 192 191 192 191 189 196 192 196 197 198 197 202 202 215 210 193 196 200 192 195 193 191 192 194 194 198 195 192 204 204 206 208 212 210 206 200 215 202 208 219 220 227 228 229 231 235 236 224
339 316 305 296 287 296 289 258 291 303 277 253 268 274 273 256 141 267 33 245 243 281 254 286 192 223 217 222 248 233 202 202 203 209 202 194 192 194 205 198 198 210 190 201 202 199 187 184 196 193 192 189 187 195 196 197 194 202 200 195 193 205 205 207 211 197 203 205 201 195 196 200 198 198 198 196 198 201 204 207 213 208 215 209 204 215 199 209 213 217 218 221 221 223 229 226 222
325 310 313 305 291 264 259 281 271 321 301 199 212 261 260 261 185 245 259 275 202 261 296 282 203 240 241 228 223 228 244 236 219 182 205 199 202 198 199 202 207 201 196 206 202 184 184 195 193 194 193 189 190 198 195 198 200 201 198 199 201 199 196 210 215 214 198 205 206 200 201 202 202 206 203 201 202 203 207 210 212 211 217 210 206 208 206 207 212 221 223 228 233 229 239 234 226
296 324 319 308 317 308 237 234 243 180 259 238 174 292 268 215 238 214 220 238 248 244 254 259 232 230 230 227 221 215 226 228 210 215 219 215 212 205 210 209 204 203 213 204 188 186 197 192 193 195 192 192 195 197 197 200 200 198 199 202 201 197 197 199 211 220 216 198 206 209 206 203 203 209 206 208 206 210 212 213 215 217 218 211 206 208 208 208 213 209 226 224 237 235 238 243 231
304 300 247 312 333 307 289 294 248 187 233 128 117 275 255 248 234 225 224 228 236 244 246 241 242 231 228 218 216 226 230 219 216 223 225 219 215 212 219 217 210 211 204 186 181 202 198 193 192 189 194 198 200 199 197 198 200 199 199 201 200 197 203 204 206 211 221 226 205 201 203 209 206 207 210 210 209 213 215 217 219 220 217 212 205 200 209 205 215 212 222 218 230 228 235 236 231
317 281 150 255 318 279 286 10 344 197 236 169 140 252 266 205 269 265 259 246 236 240 239 241 232 231 226 220 217 220 226 215 221 227 230 227 226 226 230 227 215 214 191 192 199 202 188 194 186 197 195 201 199 203 201 203 197 196 196 199 199 200 202 206 206 207 212 221 227 223 202 199 206 206 206 209 210 212 217 219 219 221 209 203 203 202 207 209 213 219 212 213 227 228 233 234 226
312 328 285 344 175 284 328 322 157 187 301 197 151 249 263 270 264 256 263 219 234 242 252 252 243 237 233 222 220 222 230 215 223 231 232 229 226 229 229 228 218 210 211 210 207 187 199 196 191 198 192 200 202 204 204 202 199 196 197 199 198 198 204 208 207 208 209 211 216 225 226 218 206 206 205 205 213 212 216 219 219 213 201 192 204 202 202 213 209 217 214 212 213 230 225 235 219
351 216 283 277 294 269 342 297 328 330 334 301 198 250 306 306 270 328 5 32 33 306 297 287 283 277 270 255 230 230 240 244 232 233 231 224 225 226 229 230 218 217 216 213 206 198 204 199 195 197 198 201 203 203 203 203 199 200 199 198 198 194 204 210 211 207 208 210 212 215 215 218 219 215 211 210 217 219 221 223 220 210 195 199 200 203 207 210 208 213 218 207 215 228 219 232 228
272 246 249 203 276 315 285 305 358 33 49 314 324 281 264 282 331 324 327 13 333 316 298 283 276 269 264 280 276 257 253 256 241 238 238 226 227 222 225 225 222 220 219 217 212 204 208 200 202 204 205 202 204 202 201 201 202 200 201 200 197 201 207 210 208 204 210 210 209 214 211 211 215 214 213 212 219 222 225 226 222 207 195 197 203 204 213 205 209 210 222 210 210 221 226 223 228
292 354 322 325 332 283 266 315 274 352 347 327 298 284 279 288 294 306 315 324 319 287 278 280 275 268 262 254 266 259 248 241 243 234 237 235 233 235 232 231 228 222 221 218 214 212 209 205 207 209 207 201 200 200 200 201 201 204 201 199 202 209 211 210 206 210 213 210 211 212 206 207 208 208 208 209 215 218 220 223 222 210 197 201 205 209 214 208 207 209 219 219 207 217 225 223 224
295 276 294 286 299 303 302 271 307 21 330 317 303 280 294 309 301 308 304 298 296 289 296 294 285 268 262 254 251 255 252 255 247 241 240 241 230 229 227 225 225 221 221 219 215 212 211 210 210 211 209 206 197 192 187 197 199 202 203 201 210 213 212 210 210 214 210 213 214 209 208 208 204 205 207 207 213 215 218 219 220 208 204 204 210 215 216 209 207 207 217 217 217 220 225 228 206
269 301 299 289 288 286 272 269 256 308 317 272 289 304 294 289 286 293 281 287 290 291 289 289 288 279 267 256 246 248 251 247 262 265 262 253 253 244 238 230 225 219 217 214 212 213 211 209 202 212 209 201 192 192 193 193 197 202 205 206 213 210 210 210 213 214 213 217 212 210 208 208 207 207 208 205 212 213 217 217 213 211 204 206 212 220 216 214 207 206 210 206 216 221 226 203 209
306 279 261 277 280 281 285 288 284 273 229 276 280 289 286 291 300 297 286 290 280 281 292 289 289 285 272 258 257 245 247 275 279 275 267 264 252 245 237 231 225 221 220 211 211 213 212 208 204 213 207 197 202 201 198 196 199 201 199 207 210 209 207 205 215 211 215 214 208 210 210 209 209 210 207 208 212 211 213 212 212 213 205 210 216 220 216 213 204 204 200 217 209 218 230 180 191
283 283 299 285 276 278 281 268 277 287 290 272 321 319 291 287 290 286 269 264 266 263 258 268 278 286 288 277 253 251 257 261 263 256 263 264 259 255 246 240 233 225 225 215 215 214 213 209 212 215 207 200 206 205 198 202 205 204 200 211 207 215 220 223 233 215 207 213 210 210 210 211 210 214 209 208 210 211 212 211 216 211 210 207 211 216 214 213 205 204 199 209 200 220 232 186 182
257 278 269 270 291 337 308 208 348 324 306 300 310 300 290 286 272 264 261 247 253 249 247 251 252 268 275 276 281 278 256 250 263 265 264 259 255 255 245 239 233 227 229 228 219 216 212 209 211 213 211 204 206 205 205 212 209 203 205 212 194 205 202 199 205 199 201 201 213 207 209 210 208 214 211 207 210 211 210 214 215 210 214 207 209 214 212 216 206 207 201 207 201 219 205 215 186
243 243 257 270 277 265 272 307 327 297 293 263 297 290 284 280 281 276 265 240 250 258 264 268 264 258 270 289 295 266 268 267 268 276 272 266 258 247 235 236 237 229 227 226 218 214 211 209 208 210 210 204 205 203 205 208 198 186 189 175 129 157 149 183 186 211 209 209 212 206 216 207 208 212 208 206 207 212 211 215 213 214 213 208 206 214 216 216 209 204 197 201 202 215 219 194 204
272 236 242 253 268 295 298 304 328 313 305 303 280 305 277 301 263 264 286 331 283 321 329 280 283 285 287 286 281 288 265 251 248 257 259 262 261 265 262 255 239 236 233 230 222 219 216 214 211 212 211 206 207 205 202 198 196 192 184 187 195 203 212 196 206 211 207 205 209 213 213 205 210 213 208 207 206 207 211 212 213 213 213 208 207 215 218 209 207 204 204 203 209 210 218 192 204
288 110 31 26 356 280 276 312 303 276 276 293 63 341 293 292 292 279 296 329 296 301 293 278 293 287 277 262 273 277 275 274 266 267 280 288 279 279 273 254 240 238 240 237 231 228 225 225 218 212 209 206 205 205 197 193 197 198 199 202 203 202 209 218 220 224 217 219 223 221 215 209 210 211 213 207 206 206 209 210 211 214 214 211 205 208 213 213 212 211 203 202 210 202 202 224 219
283 99 9 352 350 341 315 310 273 261 321 326 337 285 287 292 283 259 250 261 283 301 298 297 291 286 277 273 269 275 281 272 265 271 274 271 270 255 265 265 247 243 246 247 241 236 228 226 222 217 212 209 204 201 192 193 196 200 203 208 211 213 210 217 210 218 214 195 203 218 211 207 207 210 212 209 210 206 206 211 210 212 213 213 202 207 214 214 215 214 203 203 205 199 200 214 224
276 342 349 311 286 264 252 270 274 285 320 291 226 209 271 258 300 10 24 319 325 297 285 275 278 283 288 289 286 279 283 301 309 307 305 303 303 300 284 285 273 268 263 254 246 235 229 228 225 223 218 212 211 199 195 195 199 200 204 206 212 218 219 226 224 214 204 189 202 203 204 207 204 206 210 210 209 209 207 211 208 210 213 213 206 212 217 214 212 210 197 197 204 207 204 212 218
278 298 306 280 259 243 201 203 244 274 270 261 257 174 260 280 281 318 306 22 304 267 264 266 262 274 292 294 300 330 339 333 327 319 308 308 307 304 287 274 277 264 259 253 258 264 257 239 228 223 221 213 210 203 200 199 200 200 204 207 211 215 214 222 219 213 202 187 206 207 207 205 205 204 208 210 209 210 211 207 209 211 214 213 208 214 216 216 214 213 207 204 204 206 205 206 212
309 328 292 294 275 240 216 208 171 250 260 269 237 197 197 281 296 204 100 249 232 283 285 291 301 302 297 315 353 329 325 329 330 326 325 320 313 308 310 293 280 283 275 267 262 255 255 251 244 233 226 219 213 209 202 202 199 200 206 206 208 212 211 212 215 221 205 190 204 209 207 209 204 208 203 210 211 211 212 208 210 214 214 212 211 213 217 214 214 214 212 206 203 205 205 207 213
355 305 330 313 291 74 47 323 88 216 255 246 253 199 204 243 331 327 247 287 265 226 271 283 310 326 336 340 336 340 341 341 336 346 342 341 341 339 338 329 318 291 284 278 269 261 253 249 246 248 247 231 221 215 208 207 201 205 209 208 210 211 210 209 212 218 211 209 208 213 211 206 209 208 206 208 213 211 210 211 212 215 215 212 215 215 217 215 215 211 208 205 207 208 209 207 210
28 305 312 17 289 29 341 38 10 212 245 256 248 183 248 230 253 269 289 270 279 286 266 320 331 335 341 340 337 333 338 346 356 348 342 342 341 337 336 331 328 317 296 279 272 261 251 247 240 242 247 238 233 221 212 210 205 207 206 208 211 210 212 214 214 219 214 211 208 213 204 208 204 206 207 211 215 207 207 209 210 212 214 214 217 214 218 215 211 207 207 207 206 205 208 209 210
359 356 332 6 348 24 269 262 217 332 292 277 302 304 263 251 258 242 257 297 327 344 3 2 17 354 335 329 329 337 339 345 345 340 338 338 334 332 329 328 327 319 304 289 278 266 255 244 237 230 242 231 227 226 223 216 211 210 206 209 212 209 215 215 216 218 217 212 203 209 208 209 207 211 208 212 212 210 207 210 213 216 216 217 216 217 216 214 209 210 209 209 209 211 209 210 212
296 279 257 272 305 327 295 340 19 245 245 317 282 51 246 141 249 103 18 301 18 354 8 350 340 352 334 312 323 347 350 348 346 338 334 330 327 326 325 324 327 326 313 298 288 275 261 252 241 236 241 233 219 219 218 218 218 213 208 208 209 209 215 216 219 219 218 213 204 207 210 211 212 216 212 218 210 211 209 211 216 218 216 217 213 213 216 213 209 210 213 214 213 212 211 207 211
271 270 282 342 346 27 271 289 320 274 292 335 343 187 211 194 269 19 30 39 33 352 10 5 1 360 354 356 0 351 345 342 341 337 333 332 328 325 327 328 329 331 322 306 288 281 274 256 244 238 238 238 224 221 219 216 217 213 211 208 209 208 210 211 219 217 222 215 209 205 210 210 215 217 218 213 213 210 209 212 215 218 216 215 213 212 211 210 208 210 214 214 217 210 212 207 208
328 40 16 306 295 159 249 256 243 285 343 252 204 351 311 311 312 20 14 19 358 354 358 1 359 357 360 359 351 348 342 342 341 336 331 329 331 332 330 328 329 331 331 323 310 291 271 270 264 255 251 252 239 227 224 220 216 209 214 213 209 207 207 207 213 214 218 217 210 205 208 214 218 216 220 211 215 208 211 212 215 216 216 214 211 209 210 210 209 211 212 213 216 210 210 207 204
326 32 306 302 151 192 57 311 338 3 293 307 59 285 315 41 303 357 354 357 354 353 348 342 349 359 359 347 343 338 335 329 324 326 329 330 331 330 330 328 327 327 324 323 317 310 298 286 278 277 280 264 250 234 224 212 210 211 206 204 210 205 205 211 212 215 206 204 211 209 209 215 214 213 213 213 207 210 211 211 215 215 214 213 211 208 208 209 209 214 213 215 214 207 207 207 205
91 263 301 24 356 354 1 339 342 340 353 293 327 297 292 258 275 4 337 349 339 341 342 346 344 349 344 337 333 332 333 336 339 338 336 334 331 328 326 326 322 323 323 321 319 317 310 306 294 276 274 265 249 231 219 208 201 203 201 205 205 208 208 208 208 209 201 206 211 208 212 218 218 211 209 210 208 212 210 210 211 213 210 211 209 209 206 209 208 213 213 215 212 206 205 204 203
355 352 10 4 113 285 334 341 317 72 282 357 297 355 290 265 272 294 326 335 340 335 340 332 327 326 329 323 323 325 328 332 333 332 328 324 323 322 322 324 325 325 325 324 325 326 320 309 294 253 233 272 259 213 196 199 203 197 205 208 214 210 210 210 209 205 208 212 214 211 217 218 218 208 211 208 211 213 209 210 208 209 209 207 206 209 205 207 207 213 210 212 208 203 204 202 201
328 22 27 10 38 272 143 328 67 48 329 309 304 314 261 248 255 323 311 319 312 311 318 318 317 319 324 325 323 324 323 327 327 323 321 321 320 321 322 323 322 320 320 322 331 328 317 309 309 309 300 276 237 222 189 205 185 200 194 202 208 209 215 212 212 212 214 218 217 215 216 217 210 215 204 208 213 213 211 210 207 206 207 204 204 206 204 207 208 210 210 208 203 199 201 201 195
234 139 71 349 347 8 18 313 109 59 89 278 319 272 290 278 233 268 285 297 284 296 310 312 316 320 319 321 326 329 327 324 321 316 317 319 319 320 322 324 326 330 330 331 330 331 329 330 317 318 327 312 292 279 239 206 190 187 192 204 208 209 207 202 207 211 216 219 219 216 216 207 212 215 201 212 211 211 210 208 207 207 207 207 206 206 204 204 207 207 209 205 202 199 201 199 196